• Em Portugal
  • Lista de países
  • Para 7 dias
  • Temperatura da água
  • Mapas de satélite
  • Mapa do tempo
  • Widgets de tempo
  • user-avatar
    Iniciar Sessão

    Previsão horária em Erdenetsagaan

    Hoje, 20 Setembro, Quinta-feira

    Tempo Temperatura Precipitação Vento Pressão Humidade
    00:00 +14°C° 0 mm 6 m/s 663 mmHg 42%
    01:00 +15°C° 0 mm 6 m/s 663 mmHg 42%
    02:00 +15°C° 0 mm 7 m/s 662 mmHg 43%
    03:00 +14°C° 0 mm 7 m/s 662 mmHg 43%
    04:00 +14°C° 0 mm 7 m/s 662 mmHg 43%
    05:00 +12°C° 0 mm 7 m/s 662 mmHg 44%
    06:00 +11°C° 0 mm 8 m/s 662 mmHg 46%
    07:00 +8°C° 0 mm 10 m/s 662 mmHg 48%
    08:00 +7°C° 0 mm 11 m/s 662 mmHg 50%
    09:00 +7°C° 0 mm 12 m/s 662 mmHg 47%
    10:00 +8°C° 0 mm 13 m/s 662 mmHg 44%
    11:00 +8°C° 0 mm 14 m/s 663 mmHg 40%
    12:00 +8°C° 0 mm 14 m/s 662 mmHg 40%
    13:00 +8°C° 0 mm 14 m/s 662 mmHg 39%
    14:00 +8°C° 0 mm 14 m/s 662 mmHg 38%
    15:00 +8°C° 0 mm 13 m/s 662 mmHg 40%
    16:00 +7°C° 0 mm 13 m/s 662 mmHg 41%
    17:00 +5°C° 0 mm 12 m/s 662 mmHg 42%
    18:00 +5°C° 0 mm 10 m/s 661 mmHg 45%
    19:00 +3°C° 0 mm 9 m/s 661 mmHg 47%
    20:00 +2°C° 0 mm 8 m/s 661 mmHg 50%
    21:00 +2°C° 0 mm 9 m/s 661 mmHg 50%
    22:00 +1°C° 0 mm 10 m/s 660 mmHg 51%
    23:00 +1°C° 0 mm 11 m/s 660 mmHg 52%

    Amanhã, 21 Setembro, Sexta-feira

    Tempo Temperatura Precipitação Vento Pressão Humidade
    00:00 +1°C° 0 mm 11 m/s 659 mmHg 54%
    01:00 +1°C° 0 mm 11 m/s 659 mmHg 56%
    02:00 +1°C° 0 mm 11 m/s 658 mmHg 58%
    03:00 -1°C° 0 mm 11 m/s 658 mmHg 62%
    04:00 -1°C° 0 mm 11 m/s 657 mmHg 66%
    05:00 0°C° 0 mm 10 m/s 656 mmHg 70%
    06:00 +1°C° 0.2 mm 10 m/s 657 mmHg 72%
    07:00 +1°C° 0.2 mm 10 m/s 657 mmHg 74%
    08:00 +2°C° 0.2 mm 10 m/s 657 mmHg 76%
    09:00 +2°C° 0.5 mm 10 m/s 658 mmHg 78%
    10:00 +1°C° 0.5 mm 10 m/s 658 mmHg 80%
    11:00 +1°C° 0.5 mm 11 m/s 659 mmHg 81%
    12:00 +1°C° 0.3 mm 10 m/s 659 mmHg 79%
    13:00 +2°C° 0.3 mm 10 m/s 660 mmHg 77%
    14:00 +2°C° 0.3 mm 10 m/s 661 mmHg 75%
    15:00 +2°C° 0.1 mm 9 m/s 662 mmHg 74%
    16:00 +2°C° 0.1 mm 9 m/s 662 mmHg 72%
    17:00 +2°C° 0.1 mm 9 m/s 663 mmHg 70%
    18:00 +2°C° 0 mm 8 m/s 663 mmHg 74%
    19:00 +2°C° 0 mm 7 m/s 664 mmHg 77%
    20:00 +1°C° 0 mm 6 m/s 664 mmHg 80%
    21:00 +1°C° 0 mm 6 m/s 664 mmHg 83%
    22:00 +1°C° 0 mm 6 m/s 665 mmHg 85%
    23:00 +1°C° 0 mm 6 m/s 665 mmHg 88%

    Depois de amanhã, 22 Setembro, Sábado

    Tempo Temperatura Precipitação Vento Pressão Humidade
    00:00 +1°C° 0.1 mm 6 m/s 665 mmHg 88%
    01:00 +2°C° 0.1 mm 7 m/s 665 mmHg 88%
    02:00 +2°C° 0.1 mm 7 m/s 665 mmHg 88%
    03:00 +1°C° 0.3 mm 8 m/s 664 mmHg 87%
    04:00 +1°C° 0.3 mm 8 m/s 664 mmHg 87%
    05:00 +1°C° 0.3 mm 9 m/s 664 mmHg 86%
    06:00 +1°C° 0.2 mm 9 m/s 664 mmHg 87%
    07:00 +1°C° 0.2 mm 9 m/s 665 mmHg 87%
    08:00 +1°C° 0.2 mm 9 m/s 665 mmHg 87%
    09:00 +2°C° 0.2 mm 9 m/s 665 mmHg 84%
    10:00 +2°C° 0.2 mm 9 m/s 666 mmHg 81%
    11:00 +3°C° 0.2 mm 9 m/s 666 mmHg 77%
    12:00 +3°C° 0.4 mm 9 m/s 666 mmHg 79%
    13:00 +3°C° 0.4 mm 10 m/s 666 mmHg 80%
    14:00 +3°C° 0.4 mm 10 m/s 666 mmHg 81%
    15:00 +2°C° 0.5 mm 10 m/s 666 mmHg 83%
    16:00 +2°C° 0.5 mm 10 m/s 666 mmHg 85%
    17:00 +2°C° 0.5 mm 10 m/s 666 mmHg 87%
    18:00 +2°C° 0.4 mm 10 m/s 667 mmHg 87%
    19:00 +2°C° 0.4 mm 10 m/s 667 mmHg 88%
    20:00 +2°C° 0.4 mm 10 m/s 668 mmHg 89%
    21:00 +2°C° 0.2 mm 10 m/s 668 mmHg 89%
    22:00 +2°C° 0.2 mm 10 m/s 669 mmHg 89%
    23:00 +2°C° 0.2 mm 9 m/s 669 mmHg 89%

    23 Setembro, Domingo

    Tempo Temperatura Precipitação Vento Pressão Humidade
    00:00 +2°C° 0.1 mm 9 m/s 669 mmHg 89%
    01:00 +2°C° 0.1 mm 8 m/s 670 mmHg 89%
    02:00 +2°C° 0.1 mm 8 m/s 670 mmHg 88%
    03:00 +1°C° 0.1 mm 8 m/s 670 mmHg 89%
    04:00 +2°C° 0.1 mm 7 m/s 670 mmHg 90%
    05:00 +2°C° 0.1 mm 7 m/s 670 mmHg 90%
    06:00 +2°C° 0.1 mm 7 m/s 671 mmHg 89%
    07:00 +2°C° 0.1 mm 7 m/s 671 mmHg 88%
    08:00 +2°C° 0.1 mm 7 m/s 672 mmHg 87%
    09:00 +2°C° 0.1 mm 7 m/s 672 mmHg 84%
    10:00 +3°C° 0.1 mm 7 m/s 672 mmHg 81%
    11:00 +4°C° 0.1 mm 7 m/s 672 mmHg 78%
    12:00 +4°C° 0 mm 7 m/s 672 mmHg 74%
    13:00 +5°C° 0 mm 7 m/s 672 mmHg 70%
    14:00 +6°C° 0 mm 7 m/s 671 mmHg 66%
    15:00 +7°C° 0 mm 6 m/s 671 mmHg 65%
    16:00 +7°C° 0 mm 6 m/s 672 mmHg 64%
    17:00 +7°C° 0 mm 6 m/s 672 mmHg 63%
    18:00 +6°C° 0 mm 5 m/s 672 mmHg 67%
    19:00 +4°C° 0 mm 4 m/s 672 mmHg 71%
    20:00 +3°C° 0 mm 3 m/s 672 mmHg 74%
    21:00 +2°C° 0 mm 3 m/s 673 mmHg 76%
    22:00 +2°C° 0 mm 3 m/s 673 mmHg 77%
    23:00 +1°C° 0 mm 3 m/s 673 mmHg 79%

    24 Setembro, Segunda-feira

    Tempo Temperatura Precipitação Vento Pressão Humidade
    00:00 +1°C° 0 mm 3 m/s 673 mmHg 80%
    01:00 +1°C° 0 mm 3 m/s 673 mmHg 81%
    02:00 +1°C° 0 mm 3 m/s 673 mmHg 82%
    03:00 0°C° 0 mm 3 m/s 673 mmHg 83%
    04:00 0°C° 0 mm 3 m/s 673 mmHg 84%
    05:00 0°C° 0 mm 3 m/s 673 mmHg 85%
    06:00 +1°C° 0 mm 3 m/s 673 mmHg 81%
    07:00 +2°C° 0 mm 3 m/s 674 mmHg 77%
    08:00 +3°C° 0 mm 3 m/s 674 mmHg 73%
    09:00 +5°C° 0 mm 4 m/s 674 mmHg 67%
    10:00 +7°C° 0 mm 4 m/s 674 mmHg 60%
    11:00 +8°C° 0 mm 4 m/s 674 mmHg 54%
    12:00 +10°C° 0 mm 4 m/s 674 mmHg 52%
    13:00 +10°C° 0 mm 4 m/s 674 mmHg 50%
    14:00 +11°C° 0 mm 3 m/s 673 mmHg 48%
    15:00 +11°C° 0 mm 3 m/s 673 mmHg 50%
    16:00 +12°C° 0 mm 2 m/s 673 mmHg 53%
    17:00 +10°C° 0 mm 2 m/s 673 mmHg 55%
    18:00 +10°C° 0 mm 1 m/s 673 mmHg 60%
    19:00 +8°C° 0 mm 1 m/s 672 mmHg 65%
    20:00 +6°C° 0 mm 0 m/s 672 mmHg 70%
    21:00 +6°C° 0 mm 1 m/s 672 mmHg 70%
    22:00 +6°C° 0 mm 1 m/s 672 mmHg 70%
    23:00 +5°C° 0 mm 2 m/s 672 mmHg 69%

    25 Setembro, Terça-feira

    Tempo Temperatura Precipitação Vento Pressão Humidade
    00:00 +5°C° 0 mm 2 m/s 671 mmHg 70%
    01:00 +4°C° 0 mm 2 m/s 671 mmHg 70%
    02:00 +4°C° 0 mm 2 m/s 671 mmHg 70%
    03:00 +4°C° 0 mm 2 m/s 671 mmHg 69%
    04:00 +4°C° 0 mm 2 m/s 671 mmHg 69%
    05:00 +3°C° 0 mm 3 m/s 671 mmHg 69%
    06:00 +4°C° 0 mm 3 m/s 671 mmHg 67%
    07:00 +5°C° 0 mm 3 m/s 672 mmHg 65%
    08:00 +7°C° 0 mm 3 m/s 672 mmHg 63%
    09:00 +9°C° 0 mm 3 m/s 672 mmHg 56%
    10:00 +10°C° 0 mm 3 m/s 671 mmHg 50%
    11:00 +13°C° 0 mm 2 m/s 671 mmHg 44%
    12:00 +14°C° 0 mm 2 m/s 671 mmHg 42%
    13:00 +14°C° 0 mm 2 m/s 670 mmHg 40%
    14:00 +14°C° 0 mm 3 m/s 670 mmHg 38%
    15:00 +15°C° 0 mm 2 m/s 669 mmHg 41%
    16:00 +14°C° 0 mm 2 m/s 669 mmHg 44%
    17:00 +14°C° 0 mm 2 m/s 669 mmHg 48%
    18:00 +13°C° 0 mm 2 m/s 668 mmHg 50%
    19:00 +10°C° 0 mm 3 m/s 668 mmHg 53%
    20:00 +8°C° 0 mm 3 m/s 668 mmHg 55%
    21:00 +8°C° 0 mm 3 m/s 667 mmHg 55%
    22:00 +8°C° 0 mm 3 m/s 667 mmHg 55%
    23:00 +7°C° 0 mm 3 m/s 666 mmHg 55%
    Mostrar mais